| time (UTC) | temp F | wind direction | speed MPH | gust MPH | rain 1hr in | rain 24hr in | rain mn in | humidity % | barometer mb |
| 20260903014510 | 84 | 112 | 0.0 | 0.0 | 0.01 | 0.01 | 0.01 | 81 | 1013.4 |
| 20260903013012 | 84 | 110 | 0.0 | 0.0 | 0.01 | 0.01 | 0.01 | 81 | 1013.4 |
| 20260903011514 | 85 | 107 | 0.0 | 0.0 | 0.01 | 0.01 | 0.01 | 81 | 1013.2 |
| 20260903010015 | 85 | 122 | 0.0 | 0.0 | 0.01 | 0.01 | 0.01 | 80 | 1012.9 |
| 20260903004526 | 85 | 103 | 0.0 | 0.0 | 0.00 | 0.00 | 0.00 | 79 | 1013.2 |
| 20260903003014 | 86 | 101 | 0.0 | 0.0 | 0.00 | 0.00 | 0.00 | 77 | 1013.1 |
| 20260903001515 | 86 | 66 | 0.0 | 0.0 | 0.00 | 0.00 | 0.00 | 76 | 1012.4 |
| 20260903000017 | 87 | 115 | 0.0 | 0.0 | 0.00 | 0.01 | 0.00 | 75 | 1012.3 |
| 20260902234516 | 88 | 103 | 0.0 | 0.0 | 0.00 | 0.01 | 0.00 | 72 | 1012.3 |
| 20260902233016 | 89 | 101 | 0.0 | 0.0 | 0.00 | 0.01 | 0.00 | 70 | 1012.4 |
| 20260902231516 | 90 | 108 | 0.0 | 0.0 | 0.00 | 0.01 | 0.00 | 69 | 1012.3 |
| 20260902230019 | 90 | 233 | 0.0 | 0.0 | 0.00 | 0.01 | 0.00 | 64 | 1012.3 |
| 20260902224514 | 92 | 115 | 0.0 | 0.0 | 0.00 | 0.01 | 0.00 | 60 | 1012.2 |
| 20260902223019 | 92 | 92 | 0.0 | 8.0 | 0.00 | 0.01 | 0.00 | 59 | 1012.2 |
| 20260902221522 | 94 | 101 | 0.0 | 0.0 | 0.00 | 0.01 | 0.00 | 59 | 1012.2 |
| 20260902220016 | 94 | 115 | 0.0 | 0.0 | 0.00 | 0.01 | 0.00 | 56 | 1012.2 |
| 20260902214526 | 94 | 64 | 0.0 | 0.0 | 0.00 | 0.01 | 0.00 | 58 | 1012.2 |
| 20260902213025 | 93 | 131 | 0.0 | 0.0 | 0.00 | 0.01 | 0.00 | 60 | 1012.3 |
| 20260902211520 | 94 | 103 | 0.0 | 0.0 | 0.00 | 0.02 | 0.00 | 58 | 1012.4 |
| 20260902210025 | 94 | 110 | 0.0 | 0.0 | 0.00 | 0.02 | 0.00 | 55 | 1012.5 |
| 20260902204520 | 95 | 130 | 0.0 | 0.0 | 0.00 | 0.02 | 0.00 | 56 | 1012.6 |
| 20260902203030 | 95 | 114 | 0.0 | 0.0 | 0.00 | 0.02 | 0.00 | 59 | 1012.8 |
| 20260902201521 | 95 | 112 | 0.0 | 0.0 | 0.00 | 0.02 | 0.00 | 59 | 1013.0 |
| 20260902200024 | 94 | 117 | 0.0 | 0.0 | 0.00 | 0.02 | 0.00 | 59 | 1013.2 |
| 20260902194520 | 94 | 91 | 0.0 | 0.0 | 0.00 | 0.02 | 0.00 | 58 | 1013.5 |
| 20260902193025 | 93 | 112 | 0.0 | 0.0 | 0.00 | 0.02 | 0.00 | 60 | 1013.6 |
| 20260902191536 | 93 | 119 | 0.0 | 0.0 | 0.00 | 0.03 | 0.00 | 61 | 1013.8 |
| 20260902190023 | 95 | 101 | 0.0 | 0.0 | 0.00 | 0.03 | 0.00 | 58 | 1013.9 |
| 20260902184536 | 94 | 201 | 0.0 | 0.0 | 0.00 | 0.03 | 0.00 | 61 | 1014.1 |
| 20260902183025 | 93 | 179 | 0.0 | 1.0 | 0.00 | 0.03 | 0.00 | 62 | 1014.3 |
| 20260902181525 | 92 | 231 | 0.0 | 5.0 | 0.00 | 0.03 | 0.00 | 63 | 1014.5 |
| 20260902180032 | 91 | 140 | 0.0 | 0.0 | 0.00 | 0.03 | 0.00 | 68 | 1014.9 |
| 20260902174527 | 90 | 277 | 0.0 | 0.0 | 0.00 | 0.03 | 0.00 | 69 | 1014.9 |
| 20260902173026 | 90 | 210 | 0.0 | 0.0 | 0.00 | 0.03 | 0.00 | 71 | 1015.2 |
| 20260902171526 | 90 | 199 | 0.0 | 0.0 | 0.00 | 0.03 | 0.00 | 71 | 1015.3 |
| 20260902170026 | 90 | 160 | 0.0 | 0.0 | 0.00 | 0.03 | 0.00 | 72 | 1015.6 |
| 20260902164525 | 89 | 104 | 0.0 | 0.0 | 0.00 | 0.03 | 0.00 | 74 | 1015.8 |
| 20260902163025 | 88 | 111 | 0.0 | 0.0 | 0.00 | 0.03 | 0.00 | 75 | 1015.9 |
| 20260902161528 | 88 | 221 | 0.0 | 0.0 | 0.00 | 0.03 | 0.00 | 77 | 1015.9 |
| 20260902160026 | 87 | 155 | 0.0 | 0.0 | 0.00 | 0.03 | 0.00 | 78 | 1015.8 |
| 20260902154528 | 86 | 134 | 0.0 | 0.0 | 0.00 | 0.03 | 0.00 | 80 | 1015.8 |
| 20260902153025 | 86 | 158 | 0.0 | 0.0 | 0.00 | 0.03 | 0.00 | 80 | 1015.7 |
| 20260902151505 | 85 | 99 | 0.0 | 0.0 | 0.00 | 0.03 | 0.00 | 81 | 1015.5 |
| 20260902150008 | 84 | 278 | 0.0 | 0.0 | 0.00 | 0.03 | 0.00 | 81 | 1015.4 |
| 20260902144518 | 83 | 245 | 0.0 | 0.0 | 0.00 | 0.03 | 0.00 | 81 | 1015.4 |
| 20260902143024 | 82 | 148 | 0.0 | 0.0 | 0.00 | 0.03 | 0.00 | 81 | 1015.3 |
| 20260902141523 | 81 | 121 | 0.0 | 0.0 | 0.00 | 0.03 | 0.00 | 81 | 1015.2 |
| 20260902140004 | 81 | 96 | 0.0 | 0.0 | 0.00 | 0.03 | 0.00 | 81 | 1015.3 |
| 20260902134511 | 80 | 110 | 0.0 | 0.0 | 0.00 | 0.03 | 0.00 | 80 | 1015.3 |
| 20260902133017 | 79 | 110 | 0.0 | 0.0 | 0.00 | 0.03 | 0.00 | 80 | 1015.3 |
| 20260902131521 | 79 | 110 | 0.0 | 0.0 | 0.00 | 0.04 | 0.00 | 80 | 1015.0 |
| 20260902130033 | 0 | 0.0 | 0.0 | 0.00 | 0.04 | 0.00 | 1014.8 | ||
| 20260902124530 | 0 | 0.0 | 0.0 | 0.00 | 0.04 | 0.00 | 1014.7 | ||
| 20260902123037 | 0 | 0.0 | 0.0 | 0.00 | 0.04 | 0.00 | 1014.5 | ||
| 20260902121532 | 0 | 0.0 | 0.0 | 0.00 | 0.04 | 0.00 | 1014.2 | ||
| 20260902120031 | 0 | 0.0 | 0.0 | 0.00 | 0.04 | 0.00 | 1014.3 | ||
| 20260902114531 | 0 | 0.0 | 0.0 | 0.00 | 0.04 | 0.00 | 1014.3 | ||
| 20260902113031 | 0 | 0.0 | 0.0 | 0.00 | 0.04 | 0.00 | 1014.2 | ||
| 20260902111538 | 0 | 0.0 | 0.0 | 0.00 | 0.04 | 0.00 | 1013.9 | ||
| 20260902110031 | 0 | 0.0 | 0.0 | 0.00 | 0.04 | 0.00 | 1014.1 | ||
| 20260902104533 | 0 | 0.0 | 0.0 | 0.00 | 0.04 | 0.00 | 1014.0 | ||
| 20260902103033 | 0 | 0.0 | 0.0 | 0.00 | 0.04 | 0.00 | 1014.1 | ||
| 20260902101532 | 0 | 0.0 | 0.0 | 0.00 | 0.04 | 0.00 | 1013.8 | ||
| 20260902100034 | 0 | 0.0 | 0.0 | 0.00 | 0.04 | 0.00 | 1013.7 | ||
| 20260902094531 | 0 | 0.0 | 0.0 | 0.00 | 0.04 | 0.00 | 1013.8 | ||
| 20260902093034 | 0 | 0.0 | 0.0 | 0.00 | 0.04 | 0.00 | 1013.8 | ||
| 20260902091522 | 79 | 162 | 0.0 | 0.0 | 0.00 | 0.04 | 0.00 | 77 | 1013.7 |
| 20260902090028 | 79 | 108 | 0.0 | 0.0 | 0.00 | 0.04 | 0.00 | 78 | 1013.6 |
| 20260902084508 | 79 | 113 | 0.0 | 0.0 | 0.00 | 0.04 | 0.00 | 78 | 1013.6 |
| 20260902083012 | 79 | 108 | 0.0 | 0.0 | 0.00 | 0.04 | 0.00 | 78 | 1013.7 |
| 20260902081519 | 79 | 128 | 0.0 | 0.0 | 0.00 | 0.04 | 0.00 | 78 | 1013.8 |
| 20260902080025 | 79 | 119 | 0.0 | 0.0 | 0.00 | 0.04 | 0.00 | 79 | 1014.0 |
| 20260902074533 | 79 | 108 | 0.0 | 0.0 | 0.00 | 0.04 | 0.00 | 78 | 1013.8 |
| 20260902073009 | 79 | 108 | 0.0 | 0.0 | 0.00 | 0.04 | 0.00 | 79 | 1013.8 |
| 20260902071519 | 79 | 127 | 0.0 | 0.0 | 0.00 | 0.04 | 0.00 | 79 | 1013.9 |
| 20260902070024 | 80 | 108 | 0.0 | 0.0 | 0.00 | 0.04 | 0.00 | 79 | 1013.8 |
| 20260902064530 | 80 | 113 | 0.0 | 0.0 | 0.00 | 0.04 | 0.00 | 79 | 1013.8 |
| 20260902063041 | 80 | 118 | 0.0 | 0.0 | 0.00 | 0.04 | 0.00 | 79 | 1013.8 |
| 20260902061510 | 80 | 116 | 0.0 | 0.0 | 0.00 | 0.04 | 0.00 | 79 | 1013.9 |
| 20260902060016 | 80 | 115 | 0.0 | 0.0 | 0.00 | 0.04 | 0.00 | 80 | 1013.8 |
| 20260902054529 | 80 | 242 | 0.0 | 0.0 | 0.00 | 0.04 | 0.00 | 80 | 1013.7 |
| 20260902053028 | 80 | 203 | 0.0 | 0.0 | 0.00 | 0.04 | 0.00 | 81 | 1013.8 |
| 20260902051532 | 79 | 202 | 0.0 | 0.0 | 0.00 | 0.04 | 0.00 | 81 | 1014.0 |
| 20260902050046 | 79 | 202 | 0.0 | 0.0 | 0.00 | 0.04 | 0.00 | 81 | 1013.9 |
| 20260902044521 | 79 | 203 | 0.0 | 0.0 | 0.00 | 0.04 | 0.04 | 81 | 1014.0 |
| 20260902043031 | 79 | 203 | 0.0 | 0.0 | 0.00 | 0.04 | 0.04 | 82 | 1014.0 |
| 20260902041531 | 79 | 203 | 0.0 | 0.0 | 0.00 | 0.04 | 0.04 | 82 | 1013.9 |
| 20260902040035 | 79 | 203 | 0.0 | 0.0 | 0.00 | 0.04 | 0.04 | 81 | 1014.1 |
| 20260902034517 | 78 | 203 | 0.0 | 0.0 | 0.00 | 0.04 | 0.04 | 81 | 1014.1 |
| 20260902033018 | 78 | 203 | 0.0 | 0.0 | 0.00 | 0.04 | 0.04 | 81 | 1014.1 |
| 20260902031526 | 78 | 203 | 0.0 | 0.0 | 0.00 | 0.04 | 0.04 | 82 | 1013.9 |
| 20260902030031 | 79 | 203 | 0.0 | 0.0 | 0.00 | 0.04 | 0.04 | 82 | 1013.6 |
| 20260902024543 | 79 | 203 | 0.0 | 0.0 | 0.00 | 0.04 | 0.04 | 82 | 1013.3 |
| 20260902023020 | 79 | 203 | 0.0 | 0.0 | 0.00 | 0.04 | 0.04 | 82 | 1013.3 |
| 20260902021523 | 79 | 203 | 0.0 | 0.0 | 0.00 | 0.04 | 0.04 | 82 | 1013.0 |
| 20260902020028 | 79 | 202 | 0.0 | 0.0 | 0.00 | 0.04 | 0.04 | 82 | 1013.1 |